Wind_Speed
8 6 9 12 13 14 15 17 18 16 16 15 16 14 13 14 16 18 17 21 20 19 18 18 19 19 20 21 20 18 16 17
8 6 8 10 12 13 14 15 16 17 16 16 15 14 14 12 16 15 18 21 21 20 21 20 20 19 19 18 18 19 17 14
7 5 7 8 10 12 13 15 16 17 14 13 13 12 12 14 15 15 19 20 20 20 20 20 21 22 21 22 20 20 19 17
10 6 2 5 8 10 11 14 15 17 17 16 16 14 14 18 18 18 21 19 19 20 19 19 21 20 20 21 21 20 19 21
12 10 7 6 7 8 10 12 14 15 17 17 17 16 14 17 18 21 19 20 20 21 21 22 22 21 20 21 20 19 18 18
10 8 11 7 6 8 9 11 13 14 15 16 16 15 15 15 18 18 20 20 21 22 25 24 24 21 20 21 21 19 17 15
12 12 10 9 6 7 8 10 11 12 13 14 15 15 15 16 19 18 20 20 21 23 24 23 21 21 22 21 20 19 19 18
13 11 12 9 6 6 8 9 11 11 12 14 15 15 15 16 17 18 19 20 21 22 24 23 21 22 21 21 20 19 19 18
12 12 12 11 7 6 7 9 10 10 12 13 14 15 14 15 16 16 17 18 19 21 22 22 22 22 22 22 21 20 20 20
13 14 13 12 11 7 7 9 9 10 11 11 12 13 14 14 15 16 17 18 18 20 22 23 23 23 24 23 21 21 21 21
13 13 15 12 12 9 7 8 10 9 9 10 10 11 11 12 13 15 16 16 18 19 21 23 24 27 27 25 24 22 23 23
14 15 17 15 11 11 8 7 9 8 8 8 8 9 9 10 12 14 16 16 18 20 21 23 24 26 28 26 24 22 23 24
13 16 19 15 12 11 7 7 8 7 6 7 7 7 8 10 12 13 15 16 18 19 21 24 25 27 28 26 25 24 25 25
12 13 14 14 11 9 9 7 6 8 7 7 8 9 10 12 12 13 14 16 18 19 21 24 24 29 28 28 24 26 26 26
9 11 12 13 12 10 10 8 7 8 8 9 9 9 10 11 12 13 14 16 18 20 21 24 27 30 29 29 24 25 25 28
12 10 11 13 12 11 10 9 8 8 9 9 9 9 10 11 13 13 15 17 19 20 21 23 30 30 32 27 23 23 26 28
13 12 14 14 12 11 10 9 8 9 10 10 9 9 12 13 13 14 15 16 18 23 25 24 30 30 29 23 22 22 24 27
12 11 14 14 12 12 12 10 10 10 11 10 10 11 14 14 13 15 17 17 19 22 26 26 26 31 30 24 21 22 24 27
12 16 17 14 13 13 12 11 11 11 11 10 11 13 13 13 14 15 14 15 18 21 24 25 24 28 30 27 20 23 25 26
Wind_Direction
81 60 58 58 56 52 49 40 34 35 30 28 26 21 29 23 29 19 16 13 6 8 360 360 358 353 352 350 343 339 336 319
104 93 62 60 51 51 48 43 35 33 30 25 14 12 15 24 23 18 12 10 6 7 3 1 356 355 350 349 347 343 337 332
136 122 59 45 42 38 37 36 33 29 23 21 13 9 10 28 14 10 2 6 5 4 2 1 358 354 350 351 355 341 329 334
153 140 100 61 49 39 43 40 38 32 29 23 17 17 15 12 5 6 2 0 3 3 4 7 1 356 350 349 350 360 339 331
157 152 127 92 74 64 56 50 42 33 30 29 30 22 14 7 3 1 358 3 3 6 7 3 359 356 351 347 341 342 344 333
142 139 127 107 98 82 66 59 47 38 36 35 32 27 15 7 9 2 3 2 4 4 1 360 353 345 342 339 336 334 326 314
140 136 140 126 110 94 77 74 57 45 42 40 37 30 23 18 12 9 2 3 0 359 356 351 348 344 340 335 328 326 321 313
147 162 158 132 116 101 92 76 63 52 48 44 37 32 28 27 19 9 9 2 360 355 355 350 348 343 341 336 331 325 317 311
160 150 137 146 132 101 90 84 71 60 53 49 43 39 35 32 25 19 13 6 358 356 355 354 351 347 348 345 339 330 325 318
163 144 141 145 132 111 98 94 81 66 59 53 48 43 39 37 32 27 17 11 4 3 3 1 359 356 353 349 342 336 331 324
159 151 143 137 133 125 113 100 88 71 63 55 50 47 44 41 37 30 21 16 12 12 10 9 6 4 1 354 347 342 343 336
154 158 154 141 139 136 129 103 89 79 69 61 52 49 49 46 42 35 26 20 18 19 15 13 12 8 4 359 351 354 350 343
154 152 142 144 156 145 130 112 97 87 77 74 65 57 51 51 43 37 32 26 22 20 21 18 16 13 7 2 360 3 358 353
161 149 149 145 142 132 121 103 97 90 79 79 67 58 53 52 47 41 37 33 28 25 25 23 19 15 8 6 8 10 4 0
151 160 140 134 141 132 116 103 96 93 87 76 64 56 54 53 51 46 42 40 34 29 29 28 22 16 10 9 9 12 8 6
180 156 133 135 127 120 113 100 89 89 83 75 63 61 58 58 56 53 48 47 39 37 32 31 26 20 12 10 11 12 14 8
157 141 149 139 128 119 113 104 96 95 89 81 83 72 72 66 60 57 52 50 46 40 37 34 27 21 14 15 17 19 20 15
137 141 113 116 115 126 118 116 105 98 93 89 80 75 73 71 68 64 61 56 51 45 40 37 30 22 18 21 22 29 24 21
124 116 116 122 123 115 123 119 112 106 97 91 85 81 78 76 73 66 61 58 54 49 43 38 34 25 22 23 23 25 27 25
Height
796 801 802 802 802 801 799 798 796 794 793 792 792 791 791 790 789 789 788 786 785 784 782 778 777 775 772 770 769 766 764 763
797 803 804 806 804 801 801 800 798 796 795 795 794 793 792 792 791 791 789 788 787 785 782 781 779 776 775 773 771 768 766 765
799 805 807 807 806 803 803 801 799 798 797 797 796 794 794 792 793 793 790 790 788 786 784 782 780 778 775 774 773 770 767 765
792 803 807 809 807 806 805 804 802 801 799 798 796 795 794 794 794 793 793 792 789 788 786 783 782 780 778 775 774 773 769 766
785 796 802 809 810 808 806 805 804 803 801 799 799 798 799 798 797 795 795 792 791 789 785 784 782 780 779 777 775 774 773 770
785 793 799 806 810 809 807 806 806 805 803 802 801 801 801 800 799 797 795 795 793 790 787 786 783 781 779 777 775 774 773 772
783 792 799 805 809 809 808 807 807 808 806 805 804 803 802 801 800 800 798 796 794 792 791 789 786 782 779 776 775 773 772 770
781 789 796 804 809 810 809 809 809 809 808 807 806 805 804 803 802 802 799 798 797 795 792 789 786 784 779 776 773 772 770 768
776 783 792 802 807 809 810 810 811 810 809 808 808 807 807 806 806 804 803 802 800 797 794 791 787 784 779 775 772 770 767 765
774 781 790 799 806 810 810 810 811 811 810 810 810 809 809 808 807 806 805 804 802 799 795 791 787 784 779 775 772 768 765 762
771 781 788 797 804 809 812 810 809 811 812 811 812 811 811 811 809 808 807 806 804 800 797 792 789 784 779 776 772 768 764 761
770 778 784 792 802 806 810 811 809 811 812 812 814 814 813 812 810 809 808 807 805 801 798 795 791 786 782 778 774 770 766 761
772 780 779 789 798 803 808 811 811 811 813 813 815 815 815 813 811 809 808 808 806 803 800 796 792 788 785 781 776 772 768 763
772 782 782 786 796 802 807 810 813 812 814 815 816 816 815 813 811 810 809 809 807 805 801 798 795 791 788 783 778 775 771 768
773 780 780 788 798 802 807 811 813 814 816 817 818 817 816 814 813 812 812 811 809 806 804 800 797 793 790 784 780 778 776 769
779 779 782 793 800 803 808 811 815 816 817 818 819 819 817 816 815 814 814 811 810 808 806 803 799 795 792 789 787 782 777 773
771 782 788 792 799 805 809 812 816 818 819 819 820 819 818 817 817 816 814 814 812 810 807 804 802 801 799 795 790 786 783 777
774 785 787 795 802 807 810 814 817 819 820 821 821 819 818 818 818 818 817 817 815 813 810 808 807 807 803 798 794 790 785 781
776 783 789 799 804 808 812 815 818 820 821 822 821 820 820 820 820 819 820 819 817 816 815 814 812 810 806 801 797 792 788 783